Location: Unspecified
(0.0000°N, 0.0000°E)
Time: 12:12:57
(UTC+00:00)

Transit 2A Rocket - All Passes

Search period start: 23 January 2021 00:00
Search period end: 02 February 2021 00:00
Orbit: 592 x 910 km, 66.7° (Epoch: 22 January)

Date Brightness Start Highest point End Pass type
(mag) Time Alt. Az. Time Alt. Az. Time Alt. Az.
23 Jan - 09:45:51 10° SSE 09:49:56 19° ESE 09:53:54 10° ENE daylight
23 Jan - 11:26:57 10° SW 11:32:22 36° WNW 11:37:32 10° N daylight
23 Jan - 22:15:08 10° N 22:19:07 35° ENE 22:23:17 10° SE night (unlit)
24 Jan - 10:43:51 10° SSW 10:49:52 72° WNW 10:55:32 10° NNE daylight
24 Jan - 21:34:03 10° NE 21:36:38 15° ENE 21:39:16 10° ESE night (unlit)
24 Jan - 23:15:28 10° WNW 23:18:51 22° WSW 23:22:25 10° SSW night (unlit)
25 Jan - 10:01:24 10° S 10:07:19 58° ESE 10:12:55 10° NNE daylight
25 Jan - 11:48:20 10° W 11:49:35 11° WNW 11:50:48 10° WNW daylight
25 Jan - 22:32:02 10° NW 22:36:16 51° WSW 22:40:47 10° S night (unlit)
26 Jan - 09:19:35 10° S 09:24:43 29° ESE 09:29:38 10° NE daylight
26 Jan - 11:02:30 10° WSW 11:07:03 23° WNW 11:11:26 10° NNW daylight
26 Jan - 21:49:27 10° NNW 21:53:44 65° ENE 21:58:19 10° SSE night (unlit)
27 Jan - 08:38:56 10° SE 08:42:04 14° ESE 08:45:08 10° E daylight
27 Jan - 10:18:52 10° SW 10:24:34 45° WNW 10:29:57 10° N daylight
27 Jan - 21:07:36 10° NNE 21:11:16 26° ENE 21:15:06 10° SE night (unlit)
27 Jan - 22:51:34 10° W 22:53:36 13° WSW 22:55:40 10° SW night (unlit)
28 Jan - 09:36:00 10° SSW 09:42:03 89° ESE 09:47:43 10° NNE daylight
28 Jan - 20:27:26 10° NE 20:28:47 11° ENE 20:30:09 10° E night (unlit)
28 Jan - 22:07:09 10° NW 22:10:58 29° WSW 22:15:01 10° S night (unlit)
29 Jan - 08:53:46 10° S 08:59:29 45° ESE 09:04:53 10° NE daylight
29 Jan - 10:38:47 10° WSW 10:41:46 14° WNW 10:44:39 10° NW daylight
29 Jan - 21:24:03 10° NNW 21:28:23 71° WSW 21:33:04 10° SSE night (unlit)
30 Jan - 08:12:16 10° SSE 08:16:52 23° ESE 08:21:17 10° ENE daylight
30 Jan - 09:54:12 10° SW 09:59:16 29° WNW 10:04:04 10° NNW daylight
30 Jan - 20:41:43 10° N 20:45:53 46° ENE 20:50:22 10° SE night (unlit)
31 Jan - 07:32:47 10° SE 07:34:12 11° ESE 07:35:36 10° E daylight
31 Jan - 09:10:53 10° SSW 09:16:46 58° WNW 09:22:16 10° N daylight
31 Jan - 20:00:13 10° NNE 20:03:26 20° ENE 20:06:46 10° ESE night (unlit)
31 Jan - 21:42:43 10° WNW 21:45:42 17° WSW 21:48:48 10° SSW night (unlit)
01 Feb - 08:28:14 10° SSW 08:34:14 71° ESE 08:39:50 10° NNE daylight
01 Feb - 20:58:57 10° NW 21:03:05 39° WSW 21:07:29 10° S night (unlit)
